TimePST,TemperatureF,Dew PointF,Humidity,Sea Level PressureIn,VisibilityMPH,Wind Direction,Wind SpeedMPH,Gust SpeedMPH,PrecipitationIn,Events,Conditions,WindDirDegrees,DateUTC
12:15 AM,30.2,26.6,86,29.97,10.0,Calm,Calm,-,N/A,,Overcast,0,2012-12-30 08:15:00
12:35 AM,30.2,26.6,86,29.97,10.0,NW,4.6,-,N/A,,Overcast,320,2012-12-30 08:35:00
12:55 AM,32.0,26.6,80,29.97,10.0,WNW,3.5,-,N/A,,Overcast,290,2012-12-30 08:55:00
1:15 AM,32.0,26.6,80,29.97,10.0,West,6.9,-,N/A,,Overcast,280,2012-12-30 09:15:00
1:35 AM,32.0,28.4,87,29.97,10.0,NW,8.1,-,N/A,,Overcast,310,2012-12-30 09:35:00
1:55 AM,32.0,28.4,87,29.97,10.0,WNW,9.2,-,N/A,,Overcast,300,2012-12-30 09:55:00
2:15 AM,32.0,28.4,87,29.97,9.0,WNW,5.8,-,N/A,,Overcast,300,2012-12-30 10:15:00
2:35 AM,32.0,28.4,87,29.97,8.0,WNW,8.1,-,N/A,,Overcast,300,2012-12-30 10:35:00
2:55 AM,32.0,28.4,87,29.97,8.0,WNW,5.8,-,N/A,,Overcast,290,2012-12-30 10:55:00
3:15 AM,32.0,28.4,87,29.97,6.0,WNW,5.8,-,N/A,Rain,Light Rain,290,2012-12-30 11:15:00
3:35 AM,32.0,30.2,93,29.97,6.0,WNW,4.6,-,N/A,,Overcast,300,2012-12-30 11:35:00
3:55 AM,32.0,30.2,93,29.96,5.0,WNW,3.5,-,N/A,,Overcast,300,2012-12-30 11:55:00
4:15 AM,32.0,30.2,93,29.95,5.0,WNW,4.6,-,N/A,,Overcast,300,2012-12-30 12:15:00
4:55 AM,32.0,30.2,93,29.94,5.0,Calm,Calm,-,N/A,,Overcast,0,2012-12-30 12:55:00
5:15 AM,32.0,30.2,93,29.94,5.0,NW,3.5,-,N/A,,Overcast,310,2012-12-30 13:15:00
5:35 AM,32.0,30.2,93,29.94,5.0,NW,5.8,-,N/A,,Overcast,320,2012-12-30 13:35:00
5:55 AM,32.0,30.2,93,29.94,5.0,NW,4.6,-,N/A,,Overcast,320,2012-12-30 13:55:00
6:15 AM,32.0,30.2,93,29.94,5.0,NW,3.5,-,N/A,,Overcast,320,2012-12-30 14:15:00
6:35 AM,32.0,30.2,93,29.94,4.0,WNW,4.6,-,N/A,,Overcast,290,2012-12-30 14:35:00
6:55 AM,32.0,30.2,93,29.94,5.0,West,3.5,-,N/A,,Overcast,280,2012-12-30 14:55:00
7:15 AM,32.0,30.2,93,29.94,3.0,Calm,Calm,-,N/A,,Overcast,0,2012-12-30 15:15:00
7:35 AM,32.0,30.2,93,29.94,3.0,NW,3.5,-,N/A,,Overcast,310,2012-12-30 15:35:00
7:55 AM,32.0,30.2,93,29.94,5.0,WNW,4.6,-,N/A,,Overcast,300,2012-12-30 15:55:00
8:15 AM,32.0,30.2,93,29.95,5.0,NW,6.9,-,N/A,,Overcast,310,2012-12-30 16:15:00
8:35 AM,32.0,30.2,93,29.96,4.0,NW,5.8,-,N/A,,Overcast,310,2012-12-30 16:35:00
8:55 AM,32.0,30.2,93,29.96,3.0,WNW,5.8,-,N/A,,Overcast,290,2012-12-30 16:55:00
9:15 AM,32.0,32.0,100,29.96,3.0,WNW,6.9,-,N/A,Rain,Light Rain,300,2012-12-30 17:15:00
9:35 AM,32.0,32.0,100,29.97,1.0,NW,8.1,-,0.04,Rain,Rain,310,2012-12-30 17:35:00
9:55 AM,32.0,32.0,100,29.97,0.5,NW,9.2,-,0.09,Snow,Snow,320,2012-12-30 17:55:00
10:15 AM,32.0,32.0,100,29.97,0.2,WNW,8.1,-,0.01,Snow,Heavy Snow,300,2012-12-30 18:15:00
10:35 AM,32.0,32.0,100,29.97,0.8,NW,11.5,-,0.01,Rain,Light Rain,310,2012-12-30 18:35:00
10:55 AM,32.0,32.0,100,29.96,0.8,WNW,11.5,-,0.03,Snow,Light Snow,300,2012-12-30 18:55:00
11:15 AM,32.0,32.0,100,29.95,1.0,WNW,11.5,-,0.01,Snow,Light Snow,300,2012-12-30 19:15:00
11:35 AM,32.0,32.0,100,29.95,0.8,NW,13.8,19.6,0.06,Snow,Light Snow,310,2012-12-30 19:35:00
11:55 AM,32.0,32.0,100,29.94,1.2,NW,11.5,17.3,0.10,Snow,Light Snow,310,2012-12-30 19:55:00
12:15 PM,32.0,32.0,100,29.93,2.0,WNW,16.1,20.7,N/A,,Overcast,290,2012-12-30 20:15:00
12:35 PM,32.0,32.0,100,29.92,2.5,WNW,13.8,-,0.01,Rain,Light Rain,300,2012-12-30 20:35:00
12:55 PM,32.0,32.0,100,29.92,0.8,NW,15.0,18.4,0.10,Snow,Light Snow,310,2012-12-30 20:55:00
1:15 PM,32.0,32.0,100,29.92,1.0,NW,13.8,19.6,0.03,,Overcast,310,2012-12-30 21:15:00
1:35 PM,32.0,32.0,100,29.92,0.8,WNW,11.5,-,0.07,,Overcast,300,2012-12-30 21:35:00
1:55 PM,32.0,32.0,100,29.92,1.0,NW,12.7,-,0.11,,Overcast,310,2012-12-30 21:55:00
2:15 PM,32.0,32.0,100,29.92,0.5,WNW,13.8,-,0.09,Snow,Snow,300,2012-12-30 22:15:00
2:35 PM,32.0,32.0,100,29.92,0.5,WNW,12.7,-,0.17,Snow,Snow,300,2012-12-30 22:35:00
2:55 PM,32.0,32.0,100,29.92,0.8,WNW,12.7,-,0.22,Snow,Light Snow,300,2012-12-30 22:55:00
3:15 PM,32.0,32.0,100,29.92,1.0,NW,10.4,-,N/A,Rain,Light Rain,310,2012-12-30 23:15:00
3:35 PM,32.0,32.0,100,29.93,0.8,NW,12.7,-,0.01,Rain,Light Rain,310,2012-12-30 23:35:00
3:55 PM,32.0,32.0,100,29.93,2.0,WNW,10.4,-,0.01,Rain,Light Rain,300,2012-12-30 23:55:00
4:15 PM,32.0,32.0,100,29.93,1.2,NW,11.5,-,N/A,Rain,Light Rain,310,2012-12-31 00:15:00
4:35 PM,32.0,32.0,100,29.94,2.5,WNW,10.4,-,N/A,,Overcast,300,2012-12-31 00:35:00
4:55 PM,32.0,32.0,100,29.94,3.0,WNW,11.5,-,N/A,,Overcast,300,2012-12-31 00:55:00
5:15 PM,32.0,32.0,100,29.95,6.0,WNW,11.5,-,N/A,,Overcast,300,2012-12-31 01:15:00
5:35 PM,32.0,32.0,100,29.96,5.0,WNW,12.7,-,N/A,,Overcast,300,2012-12-31 01:35:00
5:55 PM,32.0,32.0,100,29.97,3.0,WNW,10.4,-,N/A,,Overcast,300,2012-12-31 01:55:00
6:15 PM,32.0,32.0,100,29.98,4.0,WNW,9.2,-,N/A,,Overcast,300,2012-12-31 02:15:00
6:35 PM,32.0,32.0,100,29.98,2.0,WNW,11.5,-,N/A,Rain,Light Rain,300,2012-12-31 02:35:00
6:55 PM,32.0,32.0,100,29.98,1.8,WNW,12.7,-,N/A,,Overcast,300,2012-12-31 02:55:00
7:15 PM,32.0,32.0,100,29.99,1.2,NW,12.7,-,N/A,,Overcast,320,2012-12-31 03:15:00
7:35 PM,32.0,32.0,100,30.00,1.5,NW,12.7,-,N/A,,Overcast,310,2012-12-31 03:35:00
7:55 PM,32.0,32.0,100,30.00,1.2,WNW,11.5,-,N/A,,Overcast,300,2012-12-31 03:55:00
8:15 PM,32.0,32.0,100,30.01,3.0,NW,9.2,-,N/A,,Overcast,310,2012-12-31 04:15:00
8:35 PM,32.0,32.0,100,30.02,3.0,WNW,8.1,-,N/A,,Mostly Cloudy,300,2012-12-31 04:35:00
8:55 PM,32.0,32.0,100,30.03,5.0,WNW,8.1,-,N/A,,Mostly Cloudy,300,2012-12-31 04:55:00
9:15 PM,32.0,32.0,100,30.04,5.0,NW,5.8,-,N/A,,Mostly Cloudy,310,2012-12-31 05:15:00
9:35 PM,32.0,32.0,100,30.04,3.0,NW,8.1,-,N/A,,Overcast,310,2012-12-31 05:35:00
9:55 PM,32.0,32.0,100,30.05,3.0,NW,8.1,-,N/A,,Overcast,320,2012-12-31 05:55:00
10:15 PM,32.0,32.0,100,30.06,4.0,NW,8.1,-,N/A,,Overcast,320,2012-12-31 06:15:00
10:35 PM,32.0,32.0,100,30.06,5.0,NW,8.1,-,N/A,,Overcast,310,2012-12-31 06:35:00
10:55 PM,32.0,32.0,100,30.07,5.0,NW,8.1,-,N/A,,Overcast,320,2012-12-31 06:55:00
11:15 PM,32.0,32.0,100,30.07,4.0,NW,6.9,-,N/A,,Overcast,310,2012-12-31 07:15:00
11:35 PM,32.0,30.2,93,30.08,7.0,NW,6.9,-,N/A,,Mostly Cloudy,310,2012-12-31 07:35:00
11:55 PM,30.2,28.4,93,30.07,5.0,NW,5.8,-,N/A,,Scattered Clouds,320,2012-12-31 07:55:00